Location: Allentsteig
(48.6833°N, 15.3167°E)
Time: 11:25:42
(UTC+00:00)

Cosmos 1833 Rocket - Pass Details

Date: 18 September 2020
Orbit: 831 x 841 km, 71.0° (Epoch: 24 October)

Event Time Altitude Azimuth Distance (km) Brightness Sun altitude
Rises 19:59:51 0° 333° (NNW) 3,408 6.9 -27.5°
Reaches altitude 10° 20:02:21 10° 337° (NNW) 2,470 5.9 -27.9°
Enters shadow 20:07:27 59° 31° (NNE) 969 2.9 -28.5°
